Other Public Products
Issued by NWS Grand Forks, ND

Home | Current Version | Previous Version | Text Only | Print | Product List | Glossary On
Versions: 1 2 3 4 5 6 7 8 9 10 11 12 13 14 15 16 17 18 19 20 21 22 23 24 25 26 27 28 29 30 31 32 33 34 35 36 37 38 39 40 41 42 43 44 45 46 47 48 49 50
000
FPUS83 KFGF 300810
OPUFGF
PRAIRIE TO PINES WEATHER ROUNDUP
NATIONAL WEATHER SERVICE EASTERN NORTH DAKOTA/GRAND FORKS ND
300 AM CDT SAT AUG 30 2014

 **SATELLITE DATA USED TO AUGMENT SKY COVER AT AUTOMATED STATIONS**
 *****  WEATHER ACROSS EASTERN NORTH DAKOTA  *****

CITY           SKY/WX    TMP DP  RH WIND       PRES   REMARKS
GRAND FORKS    CLEAR     53  50  89 N9        29.92S
GRAND FORKS AF CLEAR     51  51  99 N7        29.94S
GRAND CITY NWS   N/A     52 N/A N/A N2          N/A
BUXTON         NOT AVBL
DEVILS LAKE    CLEAR     48  43  81 N6        29.96R
FARGO          CLOUDY    60  54  80 N15       29.89R
WAHPETON ARPT  CLOUDY    61  55  82 N10       29.87S
$$

 *****  WEATHER ACROSS CENTRAL AND WESTERN NORTH DAKOTA  *****

CITY           SKY/WX    TMP DP  RH WIND       PRES   REMARKS
JAMESTOWN      CLEAR     54  51  90 N5        29.94F
BISMARCK       PTCLDY    48  47  96 S5        30.00R FOG
MINOT          CLEAR     52  47  83 CALM      29.96F
MINOT AFB      CLEAR     46  46  99 SW3       29.96S
GARRISON         N/A     49  48  97 CALM      29.98S
WILLISTON      CLEAR     57  51  80 CALM      29.94F
DICKINSON      PTCLDY    51  48  89 SE8       29.97F
HETTINGER      CLEAR     53  51  93 CALM      30.00F
$$

 *****  OTHER OBSERVATIONS NORTHEAST NORTH DAKOTA  *****

CITY           SKY/WX    TMP DP  RH WIND       PRES   REMARKS
WALHALLA         N/A     48  48 100 NW6       29.97S
LANGDON        FAIR      45  45 100 N6        29.97S
CAVALIER       FAIR      48  46  93 NW5       29.96S
GRAFTON        FAIR      50  50 100 N9        29.94S
CANDO          FOG       43  43 100 N5        29.99S VSB<1/4
FORT TOTTEN      N/A     54  51  89 NE2       29.95S
ROLLA          FAIR      41  41 100 CALM      30.00S
RUGBY          FAIR      48  48 100 E6        29.98S
 ***** THE ABOVE OBSERVATIONS ARE NON NWS ARE NOT QUALITY
        CONTROLLED AND MAY MIS-REPORT RAIN FOR SNOW...
$$

 *****  OTHER OBSERVATIONS SOUTHEAST NORTH DAKOTA *****

CITY           SKY/WX    TMP DP  RH WIND       PRES   REMARKS
COOPERSTOWN    NOT AVBL
VALLEY CITY    CLOUDY    57  57 100 N10       29.94S
OAKES            N/A     59  57  94 N13       29.92S
GWINNER        CLOUDY    61  57  88 N10       29.92S
BUFFALO        NOT AVBL
WYNDMERE       NOT AVBL
 ***** THE ABOVE OBSERVATIONS ARE NON NWS ARE NOT QUALITY
       CONTROLLED AND MAY MIS-REPORT RAIN FOR SNOW...
$$

  *****  WEATHER ACROSS NORTHERN MINNESOTA  *****

CITY           SKY/WX    TMP DP  RH WIND       PRES   REMARKS
FLAG ISLAND    CLEAR     59  55  88 N13       29.90S
WARROAD        CLEAR     52  48  87 NW5       29.91F
ROSEAU         CLEAR     50  45  81 N5        29.92S
HALLOCK        CLEAR     50  48  93 N6        29.94S
THF RVR FALLS  CLEAR     54  52  94 N9        29.91R
HALSTAD          N/A     57  52  82 N10         N/A
FOSSTON        CLOUDY    57  55  94 N8        29.89S
BAUDETTE       CLEAR     56  54  93 N8        29.89R
WASKISH        CLOUDY    57  55  94 N7        29.87S
CROOKSTON      MOCLDY    54  52  94 N8        29.92R
$$
  *****  WEATHER ACROSS CENTRAL AND WEST MINNESOTA  *****

CITY           SKY/WX    TMP DP  RH WIND       PRES   REMARKS
BEMIDJI        CLOUDY    58  55  88 N12       29.86S
PARK RAPIDS    CLOUDY    61  59  93 N14       29.84R
WADENA         CLOUDY    63  63 100 NW3       29.83R
DETROIT LAKES  CLOUDY    61  59  94 N6        29.87S
MOORHEAD       CLOUDY    61  61 100 N9        29.89R
FERGUS FALLS   CLOUDY    63  61  94 N7        29.85R
ELBOW LAKE     CLOUDY    61  61 100 NW8       29.84S FOG
MORRIS MN      FOG       63  63 100 NW15      29.83S VSB 3/4
STAPLES        CLOUDY    64  63  94 N3        29.82S
WHEATON        CLOUDY    59  55  88 NW8       29.88S
$$
  *****  WEATHER ELSEWHERE ACROSS MINNESOTA  *****

CITY           SKY/WX    TMP DP  RH WIND       PRES   REMARKS
DULUTH         CLOUDY    63  60  90 NE5       29.80S
INTRNTL FALLS  CLOUDY    58  55  90 N10       29.86R
ELY            CLOUDY    57  57 100 CALM      29.83R
CLOQUET        MOCLDY    63  61  94 CALM      29.80S
BRAINERD       CLOUDY    64  63  96 CALM      29.82S
HIBBING        CLOUDY    61  59  93 CALM      29.82S
ALEXANDRIA     MOCLDY    65  64  97 N6        29.84S
SAINT CLOUD    MOCLDY    68  65  90 CALM      29.78F
MINNEAPOLIS    LGT RAIN  68  67  96 NW5       29.75F FOG
$$

  *****  WEATHER ACROSS SOUTH DAKOTA  *****

CITY           SKY/WX    TMP DP  RH WIND       PRES   REMARKS
SIOUX FALLS    PTCLDY    66  64  93 NW7       29.86R
BROOKINGS      NOT AVBL
WATERTOWN      CLOUDY    60  59  96 N10       29.88S FOG
HURON          CLOUDY    61  59  93 N12       29.91R
SISSETON         N/A     60  58  92 N12       29.87S
ABERDEEN       CLOUDY    59  56  89 NW8       29.93R
MITCHELL       MOCLDY    61  60  97 MISG      29.92R
PIERRE         CLEAR     54  54 100 NW8       29.97S
MOBRIDGE       CLEAR     52  52 100 N5        29.96S
RAPID CITY     CLEAR     51  49  92 CALM      30.02F
$$

  *****  SOME WEATHER IN NEARBY STATES *****

CITY           SKY/WX    TMP DP  RH WIND       PRES   REMARKS
GLASGOW MT     CLEAR     56  52  86 E13       29.84F
GREAT FALLS MT PTCLDY    65  43  44 SW12      29.79R
CHEYENNE WY    PTCLDY    53  46  77 W10       30.15F
SCOTTSBLUFF NE CLEAR     56  54  93 E6        30.06F
OMAHA NE       CLEAR     67  64  90 W5        29.86R
DES MOINES IA  MOCLDY    68  65  90 W6        29.80S
DAVENPORT IA   RAIN      70  66  87 SW20G26   29.82S
CHICAGO IL     CLOUDY    74  67  78 S13       29.83F
EAU CLAIRE WI  LGT RAIN  67  66  97 NE3       29.74F
LA CROSSE WI   LGT RAIN  70  67  90 NW5       29.73F FOG
$$

  *****  SOME NATIONAL WEATHER *****

CITY           SKY/WX    TMP DP  RH WIND       PRES   REMARKS
LA GUARDIA NY  MOCLDY    68  55  63 CALM      30.25S
RALEIGH NC     CLOUDY    73  68  84 SE3       30.19R
ATLANTA GA     MOCLDY    75  64  68 CALM      30.12R
NEW ORLEANS LA CLOUDY    79  75  87 SE7       29.99S
OKLAHOMA CITY  PTCLDY    69  65  86 S7        29.94S
ALBUQUERQUE NM CLEAR     70  42  36 W3        30.14S
SALT LAKE CITY PTCLDY    74  42  31 S14       29.92S
LOS ANGELES CA PTCLDY    68  64  87 CALM      29.83S
BOISE ID       MOCLDY    72  50  45 W5        29.82R
SEATTLE WA     MOCLDY    61  55  81 CALM      29.96S
$$

*** WEATHER ACROSS MANITOBA...SASKATCHEWAN AND ONTARIO ***
                ***ONTARIO***

CITY           SKY/WX    TMP DP  RH WIND       PRES   REMARKS
GERALDTON      CLOUDY    54  54 100 CALM      29.80R FOG
THUNDER BAY    MOCLDY    55  55 100 SW5       29.81R
SIOUX LOOKOUT  MOCLDY    55  55 100 N8        29.89R
TORONTO        MOCLDY    64  61  88 SE3       30.06F
BIG TROUT LK   CLEAR     48  46  93 NW3       29.90R
PICKLE LAKE    NOT AVBL
DRYDEN         CLEAR     54  52  94 N6        29.90R
KENORA         CLEAR     52  52 100 N6        29.93R
$$
                *** MANITOBA***

CITY           SKY/WX    TMP DP  RH WIND       PRES   REMARKS
BRANDON        CLEAR     45  41  87 NE5       29.99S
DAUPHIN        CLEAR     43  43 100 W5        29.97S
ISLAND LAKE    MOCLDY    48  46  93 NW6       29.96S
PILOT MOUND      N/A     46  43  87 E3          N/A
THE PAS        CLEAR     46  45  93 S7        29.92S
THOMPSON       MOCLDY    41  41 100 CALM      29.93S
WINNIPEG       CLEAR     41  39  93 W5        29.97S
LYNN LAKE      MOCLDY    41  39  93 MISG      29.89F
CHURCHILL      PTCLDY    46  41  81 W14G20    29.79S
GILLAM         MOCLDY    43  41  93 SW7       29.90S
$$
                ***SASKATCHEWAN***

CITY           SKY/WX    TMP DP  RH WIND       PRES   REMARKS
ESTEVAN        PTCLDY    50  48  93 SE6       29.95F
KINDERSLEY     CLOUDY    59  52  77 SE16      29.65F
LLOYDMINSTER   CLEAR     52  46  82 SE13      29.62F
PRINCE ALBERT  NOT AVBL
REGINA         CLEAR     52  46  82 SE13      29.88F
YORKTON        CLEAR     50  43  76 S7        29.93F



USA.gov is the U.S. government's official web portal to all federal, state and local government web resources and services.